Weather in Nizhneye Timercheyevo

Russia / Chuvash Republic     55°11′00″N   47°23′17″E
temp.,
°C
wind,
m/s
gust,
m/s
humid.,
%
clouds,
%
prec.,
mm/h
press.,
hPa
HPBL,
m
4 december, sat
sat400:00+2s61496100 0.1 1008488
03:00+3ssw81793100 0.1 1006642
06:00+4ssw101981100 0.0 1002778
09:00+3ssw91995100 0.6 10021045
12:00+1wsw51193100 1.8 1005684
15:000wsw5118290 1.8 1006520
18:00−1wsw6118074 0.0 1008641
21:00−2wsw6118283 0.0 1010771
5 december, sun
sun500:00−3wsw5108365 0.0 1010649
03:00−3wsw598396 0.0 1012928
06:00−3w587998 0.1 1013951
09:00−4w577588 0.1 1015862
12:00−3wnw5667100 0.0 1017949
15:00−3wnw4666100 0.0 1018765
18:00−3wnw3468100 0.0 1019659
21:00−3nw2272100 0.0 1020510
6 december, mon
mon600:00−4n118461 0.0 1021152
03:00−5ne228870 0.0 1022137
06:00−6ene228874 0.0 1023148
09:00−6e228780 0.0 1025175
12:00−5ese2281100 0.0 1026303
15:00−5e2382100 0.0 1027252
18:00−5ese2482100 0.0 1029218
21:00−5ese3584100 0.0 1028250
7 december, tue
tue700:00−5se468092 0.0 1030292
03:00−5se478196 0.0 1030283
06:00−5ese5984100 0.0 1030321
09:00−5se51181100 0.0 1030420
12:00−3se61374100 0.0 1029546
15:00−3se71572100 0.0 1027579
18:00−3se91673100 0.0 1025729
21:00−3se91895100 2.1 1023595
8 december, wed
wed800:00−2sse81795100 5.8 1021583
03:000s71594100 7.1 1020547
06:00+2s71694100 0.3 1019491
09:00+2s71693100 0.3 1019517
12:00+2s71495100 0.0 1019473
15:00+2s51095100 0.0 1020254
18:00+2s51197100 0.0 1020320
21:00+1s61298100 0.0 1021385